TIANTONG-1 2

Last updated on Fri Oct 31 2025 00:02:49 GMT+0000 (Coordinated Universal Time)

1 46916U 20082A 25303.63753319 -.00000348 00000+0 00000+0 0 9992 2 46916 1.1974 305.3620 0003219 333.6111 114.6741 1.00268558 18358
UTC large
Height (km)
Speed (km/s)
/
Latitude / Longitude
Inclination (degrees)
Orbital Period (minutes)
Azimuth
Elevation
Range (km)
Doppler Factor

Next 0 passes for location: London (51.5072 / 0.1276)

Sorry there are no passes over London.